Time,TemperatureF,DewpointF,PressureIn,WindDirection,WindDirectionDegrees,WindSpeedMPH,WindSpeedGustMPH,Humidity,HourlyPrecipIn,Conditions,Clouds,dailyrainin,SolarRadiationWatts/m^2,SoftwareType,DateUTC
2013-05-16 00:02:00,65.0,47.0,-100.00,NNW,335,2.0,4.0,52,0.00,,,0.00,0.000000,,2013-05-16 04:02:00,
2013-05-16 00:33:00,65.0,47.0,-100.00,North,357,2.0,4.0,53,0.00,,,0.00,0.000000,,2013-05-16 04:33:00,
2013-05-16 00:42:00,65.0,47.0,-100.00,North,357,2.0,4.0,53,0.00,,,0.00,0.000000,,2013-05-16 04:42:00,
2013-05-16 00:53:00,65.0,47.0,-100.00,North,357,2.0,4.0,53,0.00,,,0.00,0.000000,,2013-05-16 04:53:00,
2013-05-16 01:02:00,65.0,47.0,-100.00,North,357,2.0,4.0,53,0.00,,,0.00,0.000000,,2013-05-16 05:02:00,
2013-05-16 01:32:00,62.0,47.0,-100.00,NNW,343,3.0,4.0,57,0.00,,,-99.99,0.000000,,2013-05-16 05:32:00,
2013-05-16 01:42:00,62.0,47.0,-100.00,NNW,343,3.0,4.0,57,0.00,,,-99.99,0.000000,,2013-05-16 05:42:00,
2013-05-16 01:52:00,62.0,47.0,-100.00,NNW,343,3.0,4.0,57,0.00,,,-99.99,0.000000,,2013-05-16 05:52:00,
2013-05-16 02:02:00,62.0,47.0,-100.00,NNW,343,3.0,4.0,57,0.00,,,-99.99,0.000000,,2013-05-16 06:02:00,
2013-05-16 02:33:00,62.0,47.0,-100.00,North,359,3.0,4.0,57,0.00,,,0.00,0.000000,,2013-05-16 06:33:00,
2013-05-16 02:43:00,62.0,47.0,-100.00,North,359,3.0,4.0,57,0.00,,,0.00,0.000000,,2013-05-16 06:43:00,
2013-05-16 02:53:00,62.0,47.0,-100.00,North,359,3.0,4.0,57,0.00,,,0.00,0.000000,,2013-05-16 06:53:00,
2013-05-16 03:02:00,62.0,47.0,-100.00,North,359,3.0,4.0,57,0.00,,,0.00,0.000000,,2013-05-16 07:02:00,
2013-05-16 03:34:00,59.0,48.0,-100.00,NW,318,2.0,3.0,66,0.00,,,0.00,0.000000,,2013-05-16 07:34:00,
2013-05-16 03:44:00,59.0,48.0,-100.00,NW,318,2.0,3.0,66,0.00,,,0.00,0.000000,,2013-05-16 07:44:00,
2013-05-16 03:54:00,59.0,48.0,-100.00,NW,318,2.0,3.0,66,0.00,,,0.00,0.000000,,2013-05-16 07:54:00,
2013-05-16 04:03:00,59.0,48.0,-100.00,NW,318,2.0,3.0,66,0.00,,,0.00,0.000000,,2013-05-16 08:03:00,
2013-05-16 04:35:00,57.0,47.0,-100.00,NW,318,1.0,2.0,70,0.00,,,0.00,0.000000,,2013-05-16 08:35:00,
2013-05-16 04:45:00,57.0,47.0,-100.00,NW,318,1.0,2.0,70,0.00,,,0.00,0.000000,,2013-05-16 08:45:00,
2013-05-16 04:55:00,57.0,47.0,-100.00,NW,318,1.0,2.0,70,0.00,,,0.00,0.000000,,2013-05-16 08:55:00,
2013-05-16 05:04:00,57.0,47.0,-100.00,NW,318,1.0,2.0,70,0.00,,,0.00,0.000000,,2013-05-16 09:04:00,
2013-05-16 05:35:00,58.0,47.0,-100.00,WNW,285,2.0,3.0,67,0.00,,,0.00,0.000000,,2013-05-16 09:35:00,
2013-05-16 05:45:00,58.0,47.0,-100.00,WNW,285,2.0,3.0,67,0.00,,,0.00,0.000000,,2013-05-16 09:45:00,
2013-05-16 05:55:00,58.0,47.0,-100.00,WNW,285,2.0,3.0,67,0.00,,,0.00,0.000000,,2013-05-16 09:55:00,
2013-05-16 06:05:00,58.0,47.0,-100.00,WNW,285,2.0,3.0,67,0.00,,,0.00,0.000000,,2013-05-16 10:05:00,
2013-05-16 06:36:00,57.0,46.0,-100.00,NW,322,0.0,2.0,66,0.00,,,0.00,6.000000,,2013-05-16 10:36:00,
2013-05-16 06:45:00,57.0,46.0,-100.00,NW,322,0.0,2.0,66,0.00,,,0.00,6.000000,,2013-05-16 10:45:00,
2013-05-16 06:56:00,57.0,46.0,-100.00,NW,322,0.0,2.0,66,0.00,,,0.00,6.000000,,2013-05-16 10:56:00,
2013-05-16 07:05:00,57.0,46.0,-100.00,NW,322,0.0,2.0,66,0.00,,,0.00,6.000000,,2013-05-16 11:05:00,
2013-05-16 07:35:00,59.0,48.0,-100.00,NNW,341,0.0,2.0,67,0.00,,,0.00,47.000000,,2013-05-16 11:35:00,
2013-05-16 07:46:00,59.0,48.0,-100.00,NNW,341,0.0,2.0,67,0.00,,,0.00,47.000000,,2013-05-16 11:46:00,
2013-05-16 07:57:00,59.0,48.0,-100.00,NNW,341,0.0,2.0,67,0.00,,,0.00,47.000000,,2013-05-16 11:57:00,
2013-05-16 08:06:00,59.0,48.0,-100.00,NNW,341,0.0,2.0,67,0.00,,,0.00,47.000000,,2013-05-16 12:06:00,
2013-05-16 08:35:00,64.0,54.0,-100.00,SSW,209,0.0,0.0,70,0.00,,,0.00,128.000000,,2013-05-16 12:35:00,
2013-05-16 09:04:00,64.0,54.0,-100.00,SSW,209,0.0,0.0,70,0.00,,,0.00,128.000000,,2013-05-16 13:04:00,
2013-05-16 09:35:00,71.0,51.0,-100.00,WSW,257,3.0,8.0,50,0.00,,,-99.99,281.000000,,2013-05-16 13:35:00,
2013-05-16 10:08:00,72.0,52.0,-100.00,WNW,300,4.0,9.0,49,0.00,,,0.00,535.000000,,2013-05-16 14:08:00,
2013-05-16 10:37:00,72.0,52.0,-100.00,WNW,300,4.0,9.0,49,0.00,,,0.00,535.000000,,2013-05-16 14:37:00,
2013-05-16 10:47:00,72.0,52.0,-100.00,WNW,300,4.0,9.0,49,0.00,,,0.00,535.000000,,2013-05-16 14:47:00,
2013-05-16 10:56:00,72.0,52.0,-100.00,WNW,300,4.0,9.0,49,0.00,,,0.00,535.000000,,2013-05-16 14:56:00,
2013-05-16 11:08:00,74.0,51.0,-100.00,West,281,6.0,12.0,45,0.00,,,0.00,735.000000,,2013-05-16 15:08:00,
2013-05-16 11:40:00,74.0,51.0,-100.00,West,281,6.0,12.0,45,0.00,,,0.00,735.000000,,2013-05-16 15:40:00,
2013-05-16 11:50:00,74.0,51.0,-100.00,West,281,6.0,12.0,45,0.00,,,0.00,735.000000,,2013-05-16 15:50:00,
2013-05-16 12:01:00,74.0,51.0,-100.00,West,281,6.0,12.0,45,0.00,,,0.00,735.000000,,2013-05-16 16:01:00,
2013-05-16 12:08:00,76.0,45.0,-100.00,NNW,331,6.0,11.0,33,0.00,,,0.00,847.000000,,2013-05-16 16:08:00,
2013-05-16 12:40:00,76.0,-99.9,-100.00,NNW,331,6.0,11.0,33,0.00,,,0.00,847.000000,,2013-05-16 16:40:00,
2013-05-16 13:08:00,79.0,49.0,-100.00,NW,311,6.0,15.0,35,0.00,,,-99.99,913.000000,,2013-05-16 17:08:00,
2013-05-16 13:40:00,79.0,49.0,-100.00,NW,311,6.0,15.0,35,0.00,,,-99.99,913.000000,,2013-05-16 17:40:00,
2013-05-16 13:50:00,-999.0,-99.9,-100.00,NW,311,6.0,15.0,35,0.00,,,-99.99,913.000000,,2013-05-16 17:50:00,
2013-05-16 14:00:00,-999.0,-99.9,-100.00,NW,311,6.0,15.0,35,0.00,,,-99.99,913.000000,,2013-05-16 18:00:00,
2013-05-16 14:08:00,80.0,-99.9,-100.00,WNW,294,6.0,17.0,24,0.00,,,0.00,800.000000,,2013-05-16 18:08:00,
2013-05-16 14:41:00,-999.0,-99.9,-100.00,WNW,294,6.0,17.0,24,0.00,,,0.00,800.000000,,2013-05-16 18:41:00,
2013-05-16 14:50:00,-999.0,-99.9,-100.00,WNW,294,6.0,17.0,24,0.00,,,0.00,800.000000,,2013-05-16 18:50:00,
2013-05-16 15:01:00,-999.0,-99.9,-100.00,WNW,294,6.0,17.0,24,0.00,,,0.00,800.000000,,2013-05-16 19:01:00,
2013-05-16 15:08:00,-999.0,-99.9,-100.00,WNW,286,6.0,16.0,22,0.00,,,0.00,706.000000,,2013-05-16 19:08:00,
2013-05-16 15:40:00,78.0,-99.9,-100.00,WNW,286,6.0,16.0,22,0.00,,,0.00,706.000000,,2013-05-16 19:40:00,
2013-05-16 15:51:00,-999.0,-99.9,-100.00,WNW,286,6.0,16.0,22,0.00,,,0.00,706.000000,,2013-05-16 19:51:00,
2013-05-16 16:01:00,-999.0,-99.9,-100.00,WNW,286,6.0,16.0,22,0.00,,,0.00,706.000000,,2013-05-16 20:01:00,
2013-05-16 16:08:00,-999.0,-99.9,-100.00,WNW,297,6.0,16.0,18,0.00,,,0.00,684.000000,,2013-05-16 20:08:00,
2013-05-16 16:41:00,-999.0,-99.9,-100.00,WNW,297,6.0,16.0,18,0.00,,,0.00,684.000000,,2013-05-16 20:41:00,
2013-05-16 16:51:00,81.0,33.0,-100.00,WNW,297,6.0,16.0,18,0.00,,,0.00,684.000000,,2013-05-16 20:51:00,
2013-05-16 17:00:00,81.0,-99.9,-100.00,WNW,297,6.0,16.0,18,0.00,,,0.00,684.000000,,2013-05-16 21:00:00,
2013-05-16 17:08:00,80.0,34.0,-100.00,NNW,328,7.0,15.0,19,0.00,,,0.00,587.000000,,2013-05-16 21:08:00,
2013-05-16 18:00:00,-999.0,-99.9,-100.00,NNW,328,7.0,15.0,19,0.00,,,0.00,587.000000,,2013-05-16 22:00:00,
2013-05-16 18:40:00,79.0,32.0,-100.00,NW,309,7.0,17.0,18,0.00,,,0.00,447.000000,,2013-05-16 22:40:00,
2013-05-16 18:51:00,79.0,32.0,-100.00,NW,309,7.0,17.0,18,0.00,,,0.00,447.000000,,2013-05-16 22:51:00,
2013-05-16 19:01:00,79.0,32.0,-100.00,NW,309,7.0,17.0,18,0.00,,,0.00,447.000000,,2013-05-16 23:01:00,
2013-05-16 19:06:00,79.0,32.0,-100.00,NW,309,7.0,17.0,18,0.00,,,0.00,447.000000,,2013-05-16 23:06:00,
2013-05-16 19:35:00,74.0,30.0,-100.00,WNW,288,4.0,11.0,20,0.00,,,0.00,139.000000,,2013-05-16 23:35:00,
2013-05-16 19:45:00,74.0,30.0,-100.00,WNW,288,4.0,11.0,20,0.00,,,0.00,139.000000,,2013-05-16 23:45:00,
2013-05-16 19:54:00,74.0,30.0,-100.00,WNW,288,4.0,11.0,20,0.00,,,0.00,139.000000,,2013-05-16 23:54:00,
2013-05-16 20:03:00,74.0,30.0,-100.00,WNW,288,4.0,11.0,20,0.00,,,0.00,139.000000,,2013-05-17 00:03:00,
2013-05-16 20:33:00,71.0,30.0,-100.00,WNW,287,4.0,13.0,22,0.00,,,-99.99,23.000000,,2013-05-17 00:33:00,
2013-05-16 20:44:00,71.0,30.0,-100.00,WNW,287,4.0,13.0,22,0.00,,,-99.99,23.000000,,2013-05-17 00:44:00,
2013-05-16 20:53:00,71.0,30.0,-100.00,WNW,287,4.0,13.0,22,0.00,,,-99.99,23.000000,,2013-05-17 00:53:00,
2013-05-16 21:03:00,71.0,30.0,-100.00,WNW,287,4.0,13.0,22,0.00,,,-99.99,23.000000,,2013-05-17 01:03:00,
2013-05-16 21:32:00,66.0,32.0,-100.00,West,274,3.0,11.0,28,0.00,,,0.00,2.000000,,2013-05-17 01:32:00,
2013-05-16 21:44:00,66.0,32.0,-100.00,West,274,3.0,11.0,28,0.00,,,0.00,2.000000,,2013-05-17 01:44:00,
2013-05-16 21:53:00,66.0,32.0,-100.00,West,274,3.0,11.0,28,0.00,,,0.00,2.000000,,2013-05-17 01:53:00,
2013-05-16 22:02:00,66.0,32.0,-100.00,West,274,3.0,11.0,28,0.00,,,0.00,2.000000,,2013-05-17 02:02:00,
2013-05-16 22:33:00,64.0,34.0,-100.00,WNW,287,3.0,10.0,32,0.00,,,0.00,0.000000,,2013-05-17 02:33:00,
2013-05-16 22:42:00,64.0,34.0,-100.00,WNW,287,3.0,10.0,32,0.00,,,0.00,0.000000,,2013-05-17 02:42:00,
2013-05-16 22:53:00,64.0,34.0,-100.00,WNW,287,3.0,10.0,32,0.00,,,0.00,0.000000,,2013-05-17 02:53:00,
2013-05-16 23:02:00,64.0,34.0,-100.00,WNW,287,3.0,10.0,32,0.00,,,0.00,0.000000,,2013-05-17 03:02:00,
2013-05-16 23:34:00,60.0,36.0,-100.00,WNW,294,3.0,10.0,40,0.00,,,0.00,0.000000,,2013-05-17 03:34:00,
2013-05-16 23:43:00,60.0,36.0,-100.00,WNW,294,3.0,10.0,40,0.00,,,0.00,0.000000,,2013-05-17 03:43:00,
2013-05-16 23:53:00,60.0,36.0,-100.00,WNW,294,3.0,10.0,40,0.00,,,0.00,0.000000,,2013-05-17 03:53:00,